Wind_Speed
28 27 27 26 24 23 20 18 16 13 10 9 9 10 12 14 15 14 12 10 8 5 2 0 3 4 5 8 11 14 15 16 16 17 17 17 15 14 14 14 15 15 15 14 11 11 12 12 10 7 5 6 8 8 9 8 7 8 8 7 8 9 10 9 7 6 5 4 2 3 4 3 3 1 2 2 2 6 6 6 7 6 5 5 4
29 28 28 27 26 24 21 17 15 12 9 8 9 11 14 16 16 15 14 12 10 7 5 6 7 10 13 16 18 18 18 18 18 18 20 20 19 17 15 15 15 14 13 12 11 11 11 12 13 10 7 8 9 9 11 11 11 13 14 13 13 13 11 9 6 5 4 5 2 0 1 6 6 1 2 2 1 4 6 7 7 7 7 6 6
29 29 29 28 26 26 23 18 15 12 8 7 9 12 16 17 18 19 20 20 19 18 17 18 18 19 20 20 18 17 17 17 17 18 20 21 20 18 17 16 15 14 12 11 10 9 9 10 11 10 9 9 10 11 12 14 13 12 14 13 12 11 9 8 6 5 3 4 2 2 3 7 8 2 2 3 1 3 6 8 10 9 8 7 6
30 30 30 28 27 27 25 20 16 13 9 8 10 14 17 17 18 21 23 24 24 25 25 25 24 22 20 18 16 15 15 14 14 16 18 18 17 16 17 15 14 12 11 10 10 9 9 9 9 10 10 10 11 12 12 12 12 11 13 13 11 9 7 5 5 3 2 2 2 3 1 4 6 5 2 2 2 4 7 9 10 10 8 6 7
30 31 30 28 28 28 26 22 18 15 10 8 11 15 16 16 17 19 21 22 23 23 23 23 22 21 19 17 16 16 16 16 16 16 15 15 15 16 17 15 12 11 11 10 9 9 8 9 8 9 10 11 11 10 10 9 10 10 12 12 11 9 7 4 3 2 3 2 3 2 2 1 4 7 3 2 3 5 7 7 8 8 8 8 9
30 31 30 29 29 29 26 23 20 17 13 10 12 16 16 16 16 17 18 19 19 21 22 21 21 20 19 18 17 17 18 19 17 14 13 13 15 17 17 14 12 11 11 10 8 6 6 8 8 9 11 10 9 8 7 6 7 8 9 8 9 9 8 5 3 4 3 3 2 1 2 1 4 5 4 2 4 6 7 8 8 9 10 10 10
30 31 30 30 30 29 27 24 22 19 15 13 14 16 16 15 16 17 17 18 18 20 22 22 21 20 20 19 18 18 17 16 14 13 13 14 15 16 15 13 11 11 11 10 7 5 5 8 8 8 9 8 8 8 8 7 5 6 6 5 6 7 6 3 2 4 2 2 2 2 2 1 3 5 5 6 6 7 9 10 11 11 11 11 11
30 30 30 31 30 30 28 25 24 21 18 16 16 17 16 14 14 15 16 18 21 21 21 21 20 18 18 19 18 17 16 16 15 14 15 15 15 15 14 12 9 8 9 10 8 5 5 7 8 7 8 8 9 9 8 7 5 3 2 3 4 5 5 2 3 4 2 2 3 4 5 6 8 8 7 7 8 9 10 12 12 13 13 13 13
29 30 30 31 31 30 29 27 25 23 20 18 17 17 15 14 13 14 15 17 19 19 19 19 17 16 17 19 18 16 16 17 16 16 17 17 16 14 13 11 9 8 8 9 7 6 5 5 5 6 6 6 6 6 5 5 5 4 2 2 3 5 7 7 7 7 5 6 7 6 7 9 10 11 10 8 8 9 11 12 13 13 14 14 14
28 29 30 32 32 31 30 29 26 24 22 20 18 17 16 15 14 15 16 15 16 16 16 15 15 15 16 17 16 16 15 15 14 15 17 16 14 12 10 8 7 7 8 8 7 6 5 3 1 3 3 1 3 4 3 4 6 6 5 4 4 5 7 9 10 11 9 9 9 6 7 9 10 10 9 8 9 10 12 13 13 14 15 15 15
28 28 30 32 33 32 31 30 28 25 23 21 19 17 16 16 16 17 15 14 13 13 13 13 15 17 17 16 14 13 13 11 11 11 12 11 10 10 9 8 6 7 8 7 5 5 4 3 2 3 4 4 4 3 1 3 6 6 4 4 5 7 7 9 12 13 13 12 11 8 8 8 9 9 10 9 11 12 13 14 14 15 15 15 15
27 28 30 33 33 33 31 30 29 27 24 21 19 17 16 16 16 16 13 13 13 13 12 12 15 16 16 14 12 12 11 9 9 10 11 11 10 8 7 7 6 6 5 4 3 3 3 3 4 6 7 7 7 4 2 3 5 5 3 4 6 7 8 9 11 14 14 14 13 12 12 12 13 14 14 13 13 14 14 14 15 15 15 15 15
27 28 31 32 33 33 32 31 30 29 27 23 20 18 16 14 13 12 10 12 14 12 10 12 13 13 12 10 10 10 9 7 8 9 11 12 11 9 6 3 1 3 4 3 4 5 5 5 6 8 9 8 9 8 7 6 6 6 5 5 7 7 9 10 12 14 15 15 16 16 16 15 16 17 16 15 15 14 14 14 14 14 15 15 15
27 29 30 32 32 32 31 30 30 30 29 26 23 19 16 14 12 10 10 10 11 10 9 11 11 11 10 9 9 9 8 6 6 7 8 8 9 11 7 2 1 3 4 4 5 6 7 8 10 10 9 9 10 10 10 9 10 9 7 6 7 7 8 10 12 14 16 17 17 17 17 16 17 17 17 16 15 15 14 15 15 15 15 15 14
27 29 30 31 32 32 31 30 30 29 29 28 25 23 21 19 17 15 14 12 11 10 11 12 11 10 10 10 9 8 7 6 5 4 6 7 8 10 8 5 4 4 5 6 8 8 8 9 10 10 6 7 9 11 11 12 12 10 7 7 8 8 9 11 12 14 16 18 18 18 17 17 18 18 18 17 16 15 14 15 15 15 15 13 9
28 29 30 31 32 32 31 30 29 28 27 27 26 25 25 25 24 23 21 20 17 15 13 12 12 12 10 9 8 7 5 5 3 2 4 6 8 9 8 7 7 8 9 9 12 13 12 11 10 9 6 5 7 9 10 11 10 7 6 8 9 10 11 11 11 12 15 16 18 19 19 19 19 19 18 17 16 15 15 15 15 14 12 8 4
28 29 30 30 31 31 31 30 28 27 26 25 25 25 25 26 25 25 24 24 22 20 17 15 15 15 14 12 11 8 5 4 2 1 3 5 8 9 8 9 10 12 13 13 14 14 13 12 11 9 8 6 6 7 8 9 9 8 9 10 10 10 9 9 9 9 11 14 16 18 19 19 18 17 16 16 15 14 14 14 12 10 6 3 6
28 29 30 30 30 31 31 30 28 27 26 25 25 24 25 25 25 24 24 23 22 21 19 18 17 17 17 16 15 12 9 6 4 2 3 4 8 9 9 11 13 15 16 15 15 15 15 14 13 11 10 8 6 6 7 7 7 7 7 7 6 5 5 5 6 6 7 9 12 13 14 15 15 15 14 14 13 12 11 9 6 3 3 7 12
29 29 30 30 30 31 31 31 30 27 27 26 24 24 24 24 24 24 24 24 23 22 20 19 19 19 17 16 15 14 12 10 7 5 4 6 8 10 12 14 16 18 18 18 19 19 18 17 16 16 14 12 9 7 6 4 3 2 2 2 1 1 3 3 3 3 4 5 7 8 10 11 12 12 11 10 8 6 5 2 1 5 9 13 16
29 29 30 30 30 31 32 32 31 29 28 27 25 24 23 23 23 23 24 24 24 22 21 20 20 19 18 17 16 15 14 12 11 10 10 11 12 14 15 17 18 20 22 22 22 22 22 21 21 20 19 17 14 11 8 6 4 3 3 3 3 3 2 2 2 2 2 2 3 4 5 5 5 5 3 2 1 1 2 4 7 10 14 16 16
30 29 30 30 30 30 31 32 31 31 30 28 26 24 23 22 22 22 22 23 23 23 22 21 20 20 19 20 19 18 17 16 15 15 14 14 16 17 18 18 20 22 24 24 23 23 23 23 24 23 22 19 17 14 11 8 5 4 4 4 4 4 3 3 3 3 3 2 1 2 2 3 3 4 4 5 5 5 7 9 11 14 16 16 15
30 29 30 30 30 30 30 31 32 31 30 29 26 25 23 22 22 23 23 24 25 24 23 22 21 20 20 21 21 21 20 18 18 17 17 17 18 19 19 20 21 23 24 24 23 23 23 24 24 25 23 22 20 17 14 10 7 6 5 5 5 6 5 5 5 5 5 5 6 6 7 8 8 8 8 8 8 9 10 11 13 16 16 15 14
31 30 29 30 30 29 29 30 31 31 30 29 27 25 24 24 24 24 24 25 26 26 24 23 22 21 20 20 21 21 21 20 19 19 19 19 19 19 20 22 23 24 24 24 23 23 23 23 24 25 25 24 23 20 17 14 10 8 6 6 6 6 7 8 8 7 7 8 9 10 10 10 10 11 11 11 10 11 11 13 14 16 15 14 13
31 30 29 29 29 29 29 29 29 29 29 28 27 26 25 25 25 24 25 26 28 28 26 25 24 22 21 20 20 21 22 22 21 21 21 21 20 19 19 20 22 24 25 25 24 23 22 22 23 24 25 25 25 23 20 17 13 10 8 7 7 6 7 9 9 9 9 10 10 11 11 12 12 12 12 12 11 11 12 13 14 14 13 12 11
30 30 29 28 28 28 28 28 28 28 28 28 27 26 26 26 26 25 25 27 28 30 29 27 26 24 23 21 20 21 22 22 22 21 21 22 21 20 18 18 21 24 24 25 24 23 22 22 23 23 25 26 26 25 23 20 16 13 10 7 7 7 8 9 9 9 10 10 11 11 12 12 13 13 13 13 13 13 13 14 13 12 12 11 10
29 29 29 28 28 28 27 27 27 27 27 27 27 27 26 26 26 26 26 26 27 30 31 30 28 27 25 23 21 21 21 21 21 21 22 22 22 21 20 20 23 24 24 24 24 23 23 23 23 24 25 26 27 27 26 22 19 16 13 9 7 7 7 8 8 8 9 10 10 11 12 12 13 13 13 13 13 14 14 13 12 11 10 9 9
29 28 28 28 27 27 26 26 26 26 27 27 27 26 26 27 27 27 27 27 26 26 29 30 29 28 27 25 23 21 21 21 21 21 22 23 22 21 21 22 24 25 24 24 23 23 23 22 23 24 25 26 28 28 27 24 21 19 16 13 9 6 6 6 7 7 8 8 9 10 11 11 12 12 13 13 13 14 13 13 12 10 10 9 8
29 27 27 27 27 26 25 25 25 25 26 27 27 26 26 27 27 28 28 28 27 26 27 29 29 29 28 27 25 23 22 22 21 21 22 22 22 22 22 22 24 24 24 25 23 22 23 22 22 24 24 26 28 29 29 26 24 22 20 17 13 9 6 6 6 7 7 8 8 9 10 10 11 12 12 13 13 13 13 12 11 11 10 10 9
29 27 25 26 26 26 25 25 24 24 25 27 27 27 26 26 27 28 28 29 28 27 27 27 27 27 27 27 26 24 23 23 22 22 22 22 22 21 22 23 24 25 24 25 24 23 23 22 22 23 24 27 28 29 29 28 27 26 25 22 19 15 10 7 6 6 6 7 8 9 9 10 10 11 11 12 12 12 12 12 12 12 11 11 10
28 27 25 24 25 26 25 24 24 24 24 25 27 27 27 26 26 27 28 28 28 26 26 27 26 25 26 27 26 25 25 24 23 22 22 22 22 21 22 24 24 25 25 25 25 24 24 24 23 24 26 27 27 28 28 29 31 30 29 27 24 20 16 12 9 7 6 7 8 9 10 11 11 11 11 11 11 11 12 12 12 12 12 11 11
28 27 25 23 23 25 25 24 23 23 23 24 25 26 27 27 26 26 27 27 27 26 26 27 26 25 25 25 26 26 26 25 24 23 23 23 23 22 23 23 24 25 25 25 26 27 26 26 26 26 26 27 26 27 28 30 32 32 31 30 28 26 23 19 15 11 9 8 8 9 10 11 12 12 11 11 10 11 11 12 12 12 11 11 11
27 26 25 23 22 23 24 24 23 22 22 23 23 25 26 27 26 25 25 25 25 26 26 27 26 25 23 24 25 26 26 26 24 24 24 24 24 24 24 24 24 24 25 25 26 27 27 27 28 27 27 26 26 28 29 30 30 31 32 32 32 31 29 25 21 17 14 12 11 11 11 12 13 12 12 11 10 10 10 10 11 11 10 10 10
26 25 24 23 22 21 22 23 23 22 21 21 22 23 25 26 25 24 24 24 24 25 26 25 24 24 23 23 25 26 26 25 25 24 25 25 24 25 25 25 24 24 24 25 26 26 27 27 28 28 28 27 26 27 30 31 30 31 32 32 33 34 33 30 27 24 21 18 16 14 14 14 13 13 12 11 10 9 9 9 10 10 10 10 11
24 24 23 22 21 20 20 21 22 22 20 20 21 22 22 24 24 24 23 23 24 24 24 24 23 23 23 24 24 25 25 25 24 25 26 26 25 26 26 26 25 25 25 25 26 27 27 27 27 28 29 29 27 27 29 31 31 32 33 33 33 34 33 33 31 29 26 23 21 19 18 16 15 14 13 12 11 11 11 12 12 13 13 14 14
22 23 22 21 20 19 18 19 20 21 20 19 19 20 20 21 23 24 23 22 22 22 23 23 23 23 23 24 23 24 24 24 24 24 25 26 25 26 27 27 28 27 27 26 27 27 28 28 28 29 30 31 31 31 31 31 32 33 33 34 34 33 33 33 33 32 30 28 26 24 22 20 18 17 16 16 16 17 17 17 17 17 17 17 17
20 21 22 20 19 19 18 17 18 19 19 18 17 18 19 20 20 22 22 21 21 21 22 22 23 22 23 23 22 23 23 23 24 24 25 25 26 26 27 29 29 28 28 27 27 27 27 28 28 29 29 30 31 32 32 32 32 33 33 34 34 34 34 34 33 32 32 31 29 28 27 25 24 23 22 22 22 21 21 21 20 20 19 19 19
19 20 21 20 18 18 17 17 16 17 18 17 15 16 18 18 18 19 20 20 20 20 21 21 22 22 22 22 22 22 23 23 24 25 25 25 26 27 27 28 28 28 28 28 27 27 26 27 27 27 28 28 29 30 31 31 32 32 32 33 33 34 34 34 34 33 32 32 31 30 29 28 27 26 26 25 24 23 23 22 22 21 21 20 20
18 18 19 20 18 17 16 16 15 15 16 16 15 15 16 17 18 18 18 20 20 20 20 20 20 21 22 22 22 22 22 23 23 24 24 24 25 26 26 27 27 27 27 28 27 27 27 27 27 27 28 28 28 29 29 29 31 32 32 32 32 33 33 33 34 33 32 32 31 30 30 30 28 28 27 26 25 25 25 24 23 22 21 21 20
16 17 18 19 18 16 15 15 15 14 15 15 16 15 16 16 17 17 17 18 19 19 19 19 20 20 20 21 21 22 21 21 22 23 23 24 24 24 25 25 26 26 26 27 27 28 28 28 29 29 29 29 30 29 28 28 29 30 31 32 32 33 33 33 33 32 32 31 31 30 30 30 29 28 28 27 26 25 25 24 23 22 22 21 21
15 16 17 18 18 15 14 14 14 13 13 14 15 16 16 16 17 17 17 17 18 19 18 18 19 19 19 20 19 20 20 20 21 22 23 23 23 23 23 24 24 25 25 26 27 28 28 29 30 30 30 30 30 30 30 29 29 29 31 32 33 33 33 33 33 32 31 31 31 30 30 30 29 28 27 26 26 26 25 25 24 23 22 23 23
14 15 17 17 18 15 13 13 13 12 12 12 14 16 16 16 16 17 16 16 17 17 17 17 18 18 18 18 18 18 19 19 20 21 22 22 22 21 22 22 23 24 24 25 25 26 27 27 28 29 29 30 30 30 30 30 30 30 31 31 32 32 33 33 33 33 32 31 31 31 30 30 29 29 28 27 27 27 26 26 25 24 23 24 24
13 14 16 16 17 16 13 12 11 11 11 11 12 14 16 15 15 15 15 15 15 16 16 16 16 17 17 17 17 17 18 18 19 20 20 20 20 20 20 21 21 22 22 23 23 24 25 25 26 26 27 28 29 29 29 30 30 30 30 30 31 31 31 32 32 32 32 31 31 31 30 30 30 29 28 27 27 27 26 26 25 24 24 24 24
13 13 15 15 15 15 13 10 10 10 10 10 10 12 14 14 13 13 13 13 13 14 15 15 15 16 16 16 16 16 16 17 17 18 19 19 19 19 19 19 19 20 20 21 21 22 22 22 23 23 24 25 26 27 27 28 28 28 29 29 29 29 30 30 30 30 30 30 29 29 29 28 28 28 27 27 26 26 25 25 25 24 25 25 23
11 12 13 13 13 14 13 10 8 8 8 8 8 9 12 12 11 11 11 11 12 12 13 14 14 15 15 15 15 14 14 15 15 16 17 17 18 18 18 18 18 18 19 19 19 19 20 20 20 20 21 22 23 24 24 25 25 26 27 27 28 28 28 28 28 28 28 28 27 27 27 26 26 26 26 25 25 25 24 24 24 24 24 23 22
9 10 13 12 11 12 12 10 8 7 7 7 7 7 9 10 9 8 9 9 10 10 11 12 13 13 14 14 14 14 13 13 13 14 14 15 15 16 16 16 17 17 17 17 18 18 18 18 18 18 19 19 20 21 21 22 22 23 24 25 25 25 26 26 26 26 26 26 26 26 26 25 25 24 24 24 23 23 23 23 23 23 22 22 22
5 8 11 12 11 11 10 9 7 6 6 6 6 6 6 7 7 6 7 7 8 8 9 10 12 12 12 13 13 13 13 12 11 12 12 13 13 14 14 15 15 16 16 16 17 17 17 17 17 17 17 17 18 18 19 19 19 20 20 22 22 23 23 23 24 24 24 24 24 25 25 24 23 23 23 22 22 22 23 23 23 23 22 22 22
3 6 10 12 12 11 10 8 6 5 5 5 5 4 4 4 4 4 5 5 6 7 7 8 10 11 11 12 12 12 12 12 11 10 10 11 12 12 13 14 14 15 15 15 16 16 16 16 16 16 16 16 16 17 17 17 17 17 18 19 19 20 21 21 21 22 22 22 23 23 23 23 22 21 21 21 21 21 22 22 22 23 22 22 22
6 8 10 12 12 11 9 8 7 6 5 4 4 3 1 2 1 2 4 4 5 5 6 7 8 9 10 10 10 10 11 11 11 10 10 10 10 11 11 12 13 14 14 15 16 16 15 15 15 15 15 15 15 15 15 15 15 16 16 17 17 18 19 19 20 20 21 21 21 22 22 22 21 21 20 20 21 21 21 21 22 22 22 22 22
10 10 10 11 11 10 9 7 8 8 6 4 2 2 1 2 1 2 2 4 4 4 5 6 6 8 9 9 9 9 9 10 10 10 10 9 10 10 11 11 13 14 15 16 16 16 15 15 15 15 15 15 14 14 14 14 14 15 15 15 16 16 17 17 18 19 19 19 19 20 21 21 21 21 20 20 20 21 21 21 21 22 22 23 23
12 12 10 10 10 9 7 5 6 9 8 5 3 3 3 4 4 3 1 2 3 3 4 5 5 6 7 8 8 8 8 8 9 9 9 9 9 10 10 11 13 14 15 16 16 16 16 15 15 15 15 15 15 14 14 14 14 15 15 15 15 15 16 16 17 18 18 18 19 19 20 20 20 20 20 20 20 21 21 20 21 21 22 23 24
12 10 8 9 10 9 6 5 6 9 10 8 5 5 5 6 6 6 4 0 2 2 3 4 5 6 6 6 7 7 7 7 8 8 9 9 9 9 10 11 12 13 14 15 16 15 16 16 16 16 15 15 15 15 15 15 15 15 15 15 15 15 15 16 16 17 17 17 18 19 19 19 20 20 20 20 19 20 21 20 21 21 21 22 23
Wind_Direction
13 15 15 13 11 9 2 354 350 349 353 3 20 36 39 40 39 36 30 25 16 8 4 145 163 148 138 132 128 123 118 114 107 103 99 96 93 95 97 96 95 95 102 109 114 106 83 65 62 73 83 74 77 75 73 83 92 96 102 114 127 129 130 131 139 153 146 111 40 70 77 350 337 101 106 71 292 280 297 301 304 308 315 317 304
15 18 18 16 14 13 9 4 360 358 6 27 43 49 50 50 48 48 49 48 49 55 76 100 114 117 120 121 118 116 114 108 102 100 97 90 86 87 90 92 94 98 106 115 118 103 76 60 61 72 82 81 87 81 78 85 83 87 96 99 104 112 119 125 138 148 132 107 98 317 305 303 312 10 103 101 346 310 316 313 310 313 311 309 305
17 21 20 18 16 14 13 15 13 10 19 49 59 59 59 59 61 67 70 70 72 78 86 94 102 108 112 112 109 110 108 103 102 101 101 93 83 83 86 91 97 102 107 111 113 102 74 60 60 67 77 85 89 85 81 80 76 83 100 103 103 109 116 128 146 144 115 106 148 267 291 297 297 254 114 84 7 302 297 305 305 305 302 301 306
19 22 21 19 17 17 19 22 24 23 32 64 71 68 67 67 73 79 82 81 82 84 86 90 95 100 101 101 104 106 101 97 100 104 107 97 83 82 87 92 99 102 102 102 101 96 81 70 61 61 68 75 79 80 77 76 83 96 107 110 113 115 117 137 155 149 136 129 231 277 296 296 280 220 168 29 302 292 288 296 299 297 296 300 308
21 24 23 20 20 21 24 28 31 34 44 74 80 76 75 76 81 86 86 86 87 84 85 89 91 93 93 96 102 103 98 93 94 99 104 96 85 86 92 98 100 95 94 95 93 92 87 78 67 63 67 69 72 74 76 79 93 111 118 118 123 131 131 134 148 175 224 219 247 271 112 254 246 215 215 356 294 292 289 292 293 295 304 308 308
24 25 24 22 24 26 28 32 35 42 56 81 88 83 84 83 86 88 84 82 83 83 86 90 91 89 86 89 95 97 95 94 94 92 95 100 95 92 97 104 104 95 92 95 96 98 94 88 77 75 75 69 68 69 80 96 108 120 126 118 118 136 140 127 151 179 204 186 192 271 89 171 229 226 239 281 282 285 288 291 293 300 309 309 307
25 26 25 24 26 29 31 35 40 50 64 85 94 91 90 89 92 89 82 76 77 85 90 91 90 88 84 85 91 94 96 98 97 90 92 104 105 98 99 102 100 94 93 95 99 97 94 96 91 85 83 76 74 73 82 91 107 129 139 132 126 144 150 125 178 188 161 137 153 275 313 320 281 270 256 259 276 285 290 291 295 304 308 308 310
27 27 27 27 29 32 34 39 47 56 71 88 97 96 93 94 99 93 84 76 76 85 89 89 90 91 91 90 93 98 100 96 90 91 94 101 104 101 98 95 91 84 84 85 87 88 91 101 106 102 87 77 71 78 85 66 54 87 140 161 171 189 204 216 275 248 211 271 227 249 295 313 300 295 284 271 278 285 289 292 297 303 306 310 314
28 29 31 31 32 35 37 43 51 60 74 86 95 98 96 101 106 96 89 82 79 85 86 85 86 92 97 94 97 101 100 92 85 94 99 99 98 95 93 89 85 75 69 68 68 73 85 98 122 132 100 75 50 57 69 22 6 9 338 266 217 222 236 241 269 273 253 261 256 261 294 302 297 298 294 283 281 287 290 294 299 303 307 311 312
29 31 33 35 36 38 41 46 52 59 72 84 93 100 103 108 110 103 97 88 86 91 89 83 76 86 101 99 100 101 100 96 92 101 103 100 93 85 82 84 86 73 62 64 66 59 65 71 153 181 149 89 357 4 34 4 349 345 320 278 244 238 248 247 260 270 261 262 266 271 288 295 297 296 291 286 290 292 293 296 300 304 307 308 309
30 33 36 37 38 41 43 48 53 59 69 81 91 99 106 111 112 111 102 89 94 99 90 83 80 89 105 106 103 105 105 101 96 101 98 92 90 82 77 79 83 70 61 72 69 36 27 23 315 282 276 281 318 345 53 350 339 340 327 298 273 254 254 255 258 265 265 264 265 266 271 273 278 285 291 294 295 293 294 296 299 301 302 304 307
32 35 39 40 41 42 45 49 53 58 65 74 85 91 99 109 115 115 103 92 102 102 87 86 93 97 102 101 102 111 111 103 89 85 78 71 75 76 80 87 83 67 64 81 53 346 338 331 311 306 301 292 292 287 246 282 313 316 305 308 296 269 259 263 264 264 265 265 264 263 261 258 264 279 291 295 293 291 292 294 296 298 301 305 311
34 38 41 43 42 42 46 50 53 58 62 68 74 82 90 104 118 120 111 105 108 103 91 94 103 105 103 96 98 112 115 100 79 75 70 64 66 53 55 105 99 39 41 50 354 320 309 316 313 302 293 296 290 275 266 261 285 288 273 293 298 281 260 261 266 264 263 262 262 262 261 263 269 278 285 289 289 289 291 292 295 299 304 310 315
37 40 42 44 44 42 44 48 53 57 62 66 70 76 83 92 104 112 115 115 111 102 94 97 102 102 101 94 91 108 115 99 75 69 56 47 48 41 48 86 337 6 20 10 341 316 300 308 315 314 291 280 278 273 276 271 279 274 257 281 293 284 265 262 263 259 258 259 260 260 259 264 272 278 281 283 284 286 289 293 297 302 307 313 319
38 41 43 46 45 42 43 46 50 56 61 66 69 73 77 81 85 88 93 96 99 94 91 92 88 84 86 83 78 91 112 111 91 64 36 34 35 38 54 61 24 7 6 354 352 350 336 328 326 331 311 266 255 257 265 265 270 267 258 276 280 278 274 273 265 254 254 257 258 256 256 263 272 276 278 280 281 285 289 294 299 304 310 317 327
39 41 43 46 46 43 43 45 49 54 60 64 67 70 72 75 76 77 78 78 79 81 83 82 76 73 72 69 60 68 103 124 119 56 29 40 33 34 48 45 25 6 359 352 353 355 351 351 346 342 332 289 260 256 260 263 268 268 270 273 270 271 273 274 265 254 253 255 256 255 258 266 272 273 274 277 280 284 289 294 300 306 313 326 4
39 42 44 46 46 44 44 45 48 52 57 61 63 65 68 69 70 71 71 70 70 70 72 71 69 67 64 61 56 62 85 116 135 75 43 40 23 22 28 20 11 6 4 358 355 356 357 1 1 357 347 326 298 282 278 276 276 274 272 269 269 271 273 273 266 259 257 256 256 257 260 264 268 269 271 275 280 285 289 294 302 311 326 30 90
39 43 46 46 46 46 45 45 49 53 55 57 59 62 65 66 65 66 65 64 63 61 61 61 61 61 62 61 62 68 76 85 94 76 44 24 14 15 17 14 17 18 17 15 15 17 17 16 15 13 9 359 337 316 302 293 284 277 273 271 274 278 292 293 282 273 264 262 261 260 262 263 265 268 271 276 280 285 291 298 309 340 71 104 113
38 43 46 47 47 48 47 46 49 52 53 53 55 59 62 63 63 63 61 59 57 56 55 56 58 60 61 60 65 72 77 81 82 77 57 33 28 29 30 31 34 34 34 37 37 35 33 32 30 29 27 22 13 4 354 338 324 312 306 317 334 349 356 337 307 300 285 279 269 267 267 266 266 268 271 275 280 289 301 319 57 100 111 116 115
37 42 46 48 48 49 48 48 49 51 51 50 52 56 60 60 60 60 59 56 54 55 56 58 58 58 59 60 65 71 74 76 75 73 62 51 46 41 40 42 44 44 46 46 44 41 39 39 38 37 33 30 28 26 23 24 39 52 61 61 47 44 41 23 360 355 337 304 270 265 264 261 259 258 261 271 316 40 89 106 110 115 118 116 111
37 40 45 48 49 50 49 49 50 51 50 49 52 55 57 57 57 57 55 52 52 55 56 58 58 58 61 65 68 69 70 70 69 66 58 54 48 45 48 50 50 50 48 45 42 41 41 41 41 39 36 34 35 35 37 42 53 63 71 72 56 54 57 51 46 45 50 80 134 143 129 115 107 101 95 94 97 105 109 112 115 117 118 114 110
37 38 43 48 49 50 50 50 50 51 52 52 54 55 55 55 54 54 52 50 51 54 55 57 59 60 63 66 67 65 65 66 66 63 58 54 51 52 55 56 54 51 46 41 40 40 41 43 43 41 38 37 37 38 42 46 55 65 70 71 66 67 68 69 70 67 73 90 99 96 93 90 90 90 92 96 100 105 109 112 116 118 117 114 111
39 37 41 47 49 51 51 51 51 52 53 54 56 57 56 54 53 52 50 51 53 53 54 56 58 59 61 63 63 61 61 62 64 64 61 58 58 59 62 61 56 48 43 39 39 40 42 44 43 41 39 38 38 39 41 45 52 62 71 78 80 79 77 77 76 75 82 88 90 88 86 86 88 90 92 94 98 102 105 111 115 118 118 115 111
41 39 39 44 49 51 52 53 53 53 54 55 58 59 56 54 54 53 53 55 55 54 54 54 55 56 58 60 61 61 61 62 64 64 62 60 60 62 64 60 49 41 39 39 39 39 42 44 42 41 41 40 40 40 41 44 46 54 65 76 82 84 78 77 77 79 84 87 88 87 87 87 89 89 89 91 94 98 102 109 114 117 117 114 107
41 41 39 41 47 51 53 54 55 55 55 56 58 59 58 57 56 56 58 57 56 56 55 53 54 55 58 60 61 63 62 60 60 58 56 54 55 58 59 53 41 37 38 38 39 41 43 44 41 41 43 42 42 41 42 43 42 46 55 67 77 81 79 79 80 83 85 86 87 87 89 89 88 89 89 90 93 97 103 108 113 116 117 112 104
40 42 41 40 44 49 53 55 56 56 56 56 58 59 59 59 59 58 60 59 58 57 53 51 54 56 57 59 59 59 57 55 53 51 50 51 54 56 54 47 39 36 39 40 42 43 43 44 43 44 45 44 44 44 44 45 43 44 47 56 70 82 89 90 90 90 90 88 88 89 89 89 90 92 93 94 96 100 105 108 113 116 114 108 99
39 42 42 41 42 47 52 54 56 57 56 56 57 58 59 60 60 60 60 58 59 58 51 50 55 56 55 56 56 54 53 51 50 49 49 52 54 52 47 42 37 37 42 42 43 45 44 45 46 47 46 46 47 47 48 49 49 49 50 52 62 81 99 107 110 109 105 100 98 96 95 95 96 97 97 98 100 103 105 108 110 109 105 99 92
37 40 42 43 42 44 49 53 54 56 56 56 56 57 59 60 60 61 61 58 59 60 54 52 55 57 56 55 55 53 53 54 53 51 50 51 50 46 40 38 39 41 46 44 44 47 46 47 50 50 51 50 50 50 51 54 55 56 57 58 62 72 91 113 126 129 128 124 119 114 110 107 104 104 103 102 102 103 104 104 103 101 97 93 87
36 38 40 42 44 43 46 50 52 54 55 55 54 55 57 59 60 62 63 62 62 62 59 56 57 58 57 54 52 52 53 54 55 54 51 48 46 43 40 43 46 46 48 47 48 51 50 51 54 55 56 55 53 53 55 57 59 60 61 62 64 68 78 95 118 134 143 145 142 137 130 125 119 113 109 106 106 105 104 101 99 97 93 89 84
34 37 38 40 44 44 44 46 50 53 53 53 53 53 54 57 59 61 63 64 64 63 61 60 60 59 57 53 50 52 53 52 53 54 52 48 45 46 46 50 52 50 52 52 52 55 55 57 59 59 60 58 56 57 58 58 59 61 61 61 64 66 70 78 93 115 136 150 152 149 142 136 131 123 118 115 111 106 104 101 98 95 91 86 81
33 35 37 37 41 45 45 44 46 51 53 53 53 52 52 55 57 59 60 62 64 64 64 64 62 61 60 55 52 54 56 54 55 56 55 53 51 51 51 54 57 56 56 56 57 59 61 63 62 60 62 62 60 60 60 58 58 59 60 60 62 64 66 70 77 89 107 127 141 145 141 136 133 129 124 119 113 108 105 101 98 93 87 83 79
32 34 35 36 38 43 46 45 44 48 52 53 53 52 51 53 56 59 61 62 63 63 64 66 65 65 65 61 56 56 57 58 58 58 59 60 58 56 55 57 60 59 56 57 59 60 63 65 63 63 64 64 64 64 62 59 57 58 59 60 60 62 63 66 71 77 86 99 114 125 129 130 130 129 125 121 116 110 104 99 95 89 84 79 72
31 32 34 35 36 39 44 47 46 46 50 53 53 52 51 52 54 58 61 63 64 64 64 65 65 66 67 65 60 56 57 58 59 59 61 64 63 60 59 59 59 58 57 58 60 61 63 65 66 66 65 65 67 66 63 59 59 60 61 61 61 61 62 63 67 72 77 85 94 104 112 118 122 124 122 119 114 106 100 94 89 84 80 75 71
29 31 33 35 36 37 40 46 48 46 47 50 53 53 52 52 52 55 58 61 65 66 65 65 64 63 65 65 63 59 59 59 60 61 63 65 65 64 63 61 60 59 58 60 62 63 64 66 68 67 66 66 66 66 64 62 62 63 63 63 63 63 63 64 66 69 74 79 87 94 101 108 112 114 113 108 102 97 92 89 86 83 81 80 80
27 29 31 34 36 37 38 43 49 50 47 48 52 54 53 53 53 54 57 61 63 65 64 64 63 63 63 63 63 63 63 63 62 64 65 66 67 67 67 65 63 62 61 62 63 64 66 68 70 69 67 67 68 68 67 66 65 64 65 65 66 66 66 67 67 69 72 76 81 87 92 98 100 100 99 96 93 92 90 88 87 86 86 86 85
23 27 28 31 34 36 37 40 46 52 51 49 50 52 54 54 54 55 57 60 63 64 64 63 63 62 62 62 62 63 64 65 64 64 65 66 67 68 69 68 66 65 63 63 63 64 66 68 70 70 69 69 70 69 67 66 65 65 65 66 66 67 67 68 68 70 72 75 79 82 86 89 91 92 92 91 91 91 90 89 89 88 87 85 82
19 24 26 27 31 34 35 37 42 50 52 50 48 48 52 54 53 54 56 59 63 65 65 65 64 62 61 62 61 61 62 64 64 64 64 65 66 67 68 69 68 67 65 64 62 62 62 64 66 68 69 69 68 67 66 64 63 64 65 65 65 67 68 69 70 70 72 75 77 80 83 85 87 88 88 88 88 88 88 87 86 85 82 79 76
14 21 24 25 27 30 33 35 37 44 50 50 47 46 49 52 51 51 54 57 62 65 67 68 67 65 62 61 60 60 61 63 64 65 65 65 66 67 68 69 69 67 66 65 63 61 60 60 61 63 65 65 64 65 66 64 63 63 63 63 64 66 68 70 71 71 72 74 76 78 80 82 83 84 84 85 84 84 84 83 80 78 76 74 72
11 16 21 23 24 26 29 32 34 38 47 49 46 45 46 49 49 48 49 53 58 63 66 69 69 69 65 62 61 61 62 64 66 66 66 65 66 68 69 68 68 67 67 65 64 63 61 60 60 61 62 63 64 64 65 65 64 61 61 63 65 66 67 69 70 72 73 75 76 77 79 80 81 82 83 83 82 81 80 79 76 74 73 72 70
9 12 17 21 22 23 24 27 30 32 40 47 48 47 46 47 48 48 46 47 53 58 63 67 70 71 69 66 63 61 62 63 66 68 68 67 68 68 69 68 68 67 67 66 65 65 63 62 61 61 61 63 64 64 65 65 64 62 61 63 65 66 67 68 69 71 72 74 75 76 78 79 80 80 80 80 79 78 76 75 74 72 70 68 65
7 9 13 18 20 21 20 20 24 27 32 42 48 50 49 49 49 48 47 45 47 53 59 64 68 71 72 70 66 61 60 62 65 68 68 68 68 68 68 68 68 68 67 66 65 65 65 63 63 63 63 63 64 64 65 65 64 63 63 63 64 65 66 67 69 70 70 70 72 73 74 76 76 76 75 75 75 74 72 72 70 67 65 63 61
7 6 9 13 17 19 17 15 17 20 24 32 45 52 53 53 52 50 49 47 45 48 55 60 64 68 71 72 69 62 60 60 63 65 66 66 66 66 66 66 66 67 67 66 65 65 64 64 64 64 63 63 64 64 64 65 64 64 63 63 63 64 65 66 67 68 69 68 68 69 69 70 72 72 71 70 71 71 69 67 66 62 60 58 56
6 6 7 10 16 17 14 10 11 14 17 21 35 52 57 57 56 53 50 51 49 46 50 56 60 64 68 70 70 66 61 59 59 62 64 65 65 64 64 63 63 64 64 63 63 63 63 63 62 62 62 63 64 64 64 63 63 63 63 62 61 61 63 64 64 64 66 67 66 66 66 65 67 69 68 67 67 67 66 64 63 60 57 55 53
4 6 5 7 12 15 11 5 3 6 9 12 22 45 60 60 58 55 53 54 54 48 48 53 57 60 64 67 69 68 64 60 59 60 61 63 63 64 63 62 61 62 61 61 61 61 61 61 59 59 60 60 61 63 63 63 62 62 62 61 60 59 59 61 62 61 61 63 64 65 65 63 63 65 66 65 64 64 63 62 60 58 56 54 52
8 8 6 6 8 11 10 3 355 354 358 4 10 33 60 65 60 56 53 56 58 54 50 52 55 57 60 64 67 68 66 63 59 58 59 59 59 61 61 60 58 59 58 57 57 57 57 58 58 56 56 57 58 59 60 60 60 60 60 60 59 58 57 57 58 59 58 59 60 61 62 61 59 60 62 62 62 61 60 59 57 56 54 52 50
26 14 11 12 11 9 6 360 349 339 345 355 1 20 56 66 61 55 53 56 62 63 56 53 56 56 57 60 63 66 66 65 61 57 56 56 55 54 52 52 53 54 53 53 53 52 52 54 56 55 53 54 55 56 57 57 57 57 58 58 57 56 55 53 53 54 54 55 57 58 58 59 57 56 57 58 59 59 58 57 55 54 52 50 47
20 357 358 359 0 1 359 352 340 328 329 343 354 7 46 62 57 48 47 53 61 70 67 60 57 58 58 58 59 61 64 64 62 57 52 49 50 49 44 43 45 47 47 49 50 48 48 49 50 51 51 50 51 52 53 53 53 53 53 54 54 53 51 50 50 50 50 50 53 56 58 57 56 55 54 54 54 54 55 55 53 52 50 48 46
336 326 332 339 344 349 350 341 329 321 316 324 343 348 39 78 37 21 39 50 58 70 78 71 62 61 61 59 58 56 60 63 62 59 52 46 46 46 43 41 42 42 42 45 47 46 46 46 45 46 46 45 46 47 47 47 47 47 47 48 49 48 47 46 46 47 47 46 48 52 54 55 54 52 52 53 52 51 51 51 51 50 48 47 45
326 311 315 328 334 340 344 337 326 323 315 305 308 303 237 176 232 307 18 50 61 71 85 89 76 70 67 64 62 58 57 61 62 61 55 48 44 44 43 41 41 41 41 43 44 43 44 44 43 43 42 40 40 42 42 40 40 41 41 41 42 43 42 42 43 44 45 45 46 48 49 51 50 49 49 50 51 49 47 47 48 47 47 46 44
322 307 305 317 325 330 336 333 325 325 319 301 263 251 239 208 216 250 293 50 71 79 95 104 96 86 80 73 71 67 62 62 62 61 57 51 45 43 43 42 41 41 41 41 41 41 41 41 41 41 39 37 35 36 36 35 35 35 37 37 37 38 39 39 41 43 43 43 45 46 46 47 46 46 46 46 47 46 43 42 44 45 45 46 44
318 306 298 308 316 319 318 312 313 317 316 303 263 235 237 221 218 233 240 190 98 105 117 125 122 111 101 90 83 79 73 68 65 63 58 54 47 42 41 40 40 40 38 38 38 38 38 38 38 38 36 33 32 31 31 31 31 32 34 35 34 35 37 38 39 41 42 42 43 44 44 44 43 42 41 41 43 44 41 39 41 42 44 46 44
Height
10979 10976 10974 10972 10970 10968 10965 10963 10961 10960 10959 10958 10958 10957 10957 10956 10955 10955 10954 10953 10953 10953 10953 10954 10955 10957 10959 10959 10960 10960 10960 10960 10960 10959 10959 10959 10959 10959 10959 10958 10958 10958 10958 10958 10958 10958 10958 10959 10958 10958 10958 10957 10956 10955 10954 10953 10952 10953 10953 10954 10955 10957 10958 10960 10961 10962 10962 10962 10962 10962 10962 10963 10963 10962 10961 10961 10961 10962 10962 10962 10961 10961 10960 10959 10959
10979 10977 10975 10973 10970 10967 10965 10962 10961 10960 10959 10959 10958 10958 10958 10957 10957 10956 10955 10954 10953 10953 10953 10955 10956 10958 10960 10960 10961 10961 10962 10961 10961 10961 10961 10961 10960 10960 10960 10959 10959 10959 10958 10958 10959 10960 10961 10961 10960 10960 10959 10958 10957 10956 10955 10954 10954 10954 10955 10956 10957 10958 10959 10961 10961 10962 10962 10962 10962 10962 10961 10962 10963 10962 10961 10960 10961 10961 10962 10962 10961 10960 10959 10959 10958
10980 10977 10975 10973 10970 10968 10965 10963 10961 10959 10959 10959 10959 10959 10959 10958 10958 10957 10957 10956 10955 10955 10955 10956 10958 10960 10961 10962 10962 10963 10963 10963 10963 10962 10962 10962 10962 10961 10961 10960 10960 10960 10959 10960 10961 10962 10962 10962 10962 10961 10960 10959 10958 10958 10957 10956 10956 10956 10957 10958 10959 10960 10961 10961 10962 10962 10962 10962 10962 10962 10961 10962 10962 10962 10960 10959 10960 10961 10961 10961 10961 10960 10959 10958 10958
10980 10978 10975 10973 10971 10968 10966 10963 10961 10959 10959 10960 10960 10960 10960 10960 10959 10959 10959 10959 10959 10959 10959 10959 10961 10962 10963 10963 10963 10964 10964 10964 10964 10964 10964 10964 10964 10963 10962 10962 10962 10962 10962 10962 10963 10963 10963 10962 10962 10962 10961 10960 10960 10959 10959 10958 10958 10958 10958 10959 10960 10961 10961 10961 10962 10962 10962 10962 10962 10961 10960 10961 10961 10961 10960 10959 10960 10961 10961 10961 10960 10960 10959 10959 10958
10981 10978 10976 10974 10972 10969 10966 10963 10961 10960 10960 10960 10961 10961 10961 10961 10962 10962 10962 10962 10962 10962 10962 10963 10963 10964 10964 10964 10964 10965 10965 10965 10965 10966 10966 10966 10965 10964 10963 10963 10963 10963 10963 10963 10964 10964 10963 10963 10963 10962 10962 10961 10961 10961 10960 10960 10960 10960 10960 10960 10960 10961 10961 10961 10962 10962 10962 10962 10961 10961 10960 10961 10961 10960 10960 10959 10960 10961 10961 10961 10960 10960 10959 10958 10958
10981 10979 10977 10975 10972 10970 10967 10964 10962 10961 10960 10961 10962 10963 10963 10963 10964 10964 10965 10965 10964 10964 10964 10964 10965 10965 10965 10965 10965 10965 10966 10966 10967 10967 10967 10967 10966 10965 10964 10964 10964 10964 10964 10964 10965 10964 10964 10965 10965 10964 10962 10962 10962 10962 10962 10961 10961 10961 10961 10961 10961 10961 10961 10961 10962 10962 10962 10961 10961 10961 10960 10961 10961 10960 10960 10960 10960 10960 10961 10960 10960 10959 10959 10958 10957
10982 10980 10978 10976 10974 10971 10969 10966 10964 10962 10962 10963 10964 10964 10964 10965 10965 10966 10967 10967 10966 10966 10966 10966 10966 10967 10967 10966 10966 10967 10967 10968 10969 10968 10968 10968 10967 10966 10966 10965 10965 10965 10965 10965 10965 10965 10965 10966 10966 10965 10964 10964 10964 10963 10963 10962 10962 10961 10961 10961 10961 10961 10961 10961 10961 10961 10961 10961 10961 10961 10960 10960 10960 10960 10960 10960 10960 10960 10960 10960 10959 10959 10958 10957 10956
10983 10981 10980 10978 10976 10973 10971 10968 10966 10964 10964 10965 10966 10966 10966 10966 10967 10968 10969 10969 10968 10968 10968 10968 10968 10968 10968 10968 10968 10969 10969 10970 10970 10970 10969 10969 10968 10968 10967 10966 10966 10967 10967 10967 10967 10966 10966 10966 10966 10965 10965 10965 10965 10964 10964 10963 10962 10962 10962 10961 10961 10961 10960 10960 10960 10960 10960 10960 10961 10961 10960 10960 10960 10960 10960 10960 10959 10960 10959 10959 10959 10958 10957 10956 10955
10985 10983 10982 10980 10978 10976 10973 10970 10968 10967 10967 10967 10967 10967 10968 10968 10969 10970 10971 10971 10971 10971 10970 10971 10971 10970 10970 10970 10970 10971 10971 10971 10971 10971 10970 10970 10970 10969 10968 10967 10967 10967 10969 10969 10968 10967 10967 10968 10967 10966 10966 10966 10965 10965 10964 10963 10962 10962 10962 10961 10961 10961 10960 10960 10960 10959 10959 10959 10960 10960 10960 10960 10960 10959 10959 10959 10959 10959 10959 10958 10958 10957 10956 10955 10954
10987 10985 10984 10982 10980 10978 10976 10973 10971 10970 10970 10969 10969 10969 10970 10970 10971 10972 10973 10973 10973 10973 10973 10973 10973 10972 10972 10972 10972 10972 10972 10972 10972 10972 10972 10971 10970 10970 10969 10969 10968 10969 10970 10970 10969 10968 10968 10968 10967 10966 10966 10966 10965 10964 10964 10963 10963 10962 10962 10961 10961 10961 10960 10960 10959 10959 10959 10958 10959 10960 10960 10960 10959 10959 10959 10959 10959 10959 10958 10958 10957 10957 10956 10955 10953
10988 10987 10985 10984 10982 10980 10977 10975 10974 10973 10972 10972 10972 10972 10972 10972 10973 10974 10975 10975 10975 10975 10975 10975 10975 10974 10974 10974 10974 10973 10973 10973 10973 10973 10972 10972 10971 10971 10971 10971 10970 10970 10971 10971 10970 10969 10968 10968 10967 10966 10966 10965 10965 10964 10964 10963 10963 10963 10962 10962 10961 10961 10960 10960 10959 10959 10959 10959 10959 10959 10960 10960 10959 10959 10959 10959 10959 10958 10958 10957 10957 10956 10955 10954 10953
10990 10988 10987 10985 10984 10982 10980 10979 10977 10976 10975 10974 10974 10974 10974 10974 10975 10976 10977 10977 10977 10977 10977 10977 10976 10976 10976 10976 10975 10974 10974 10974 10974 10973 10973 10973 10972 10972 10973 10972 10972 10972 10972 10972 10971 10969 10968 10968 10967 10966 10965 10964 10964 10964 10963 10962 10962 10962 10962 10962 10961 10961 10960 10960 10959 10958 10958 10959 10959 10959 10959 10959 10959 10958 10958 10958 10958 10958 10957 10957 10956 10955 10954 10953 10952
10992 10990 10989 10987 10986 10985 10983 10982 10980 10979 10977 10976 10976 10976 10976 10976 10977 10978 10978 10978 10978 10978 10978 10978 10978 10978 10977 10977 10976 10976 10975 10975 10974 10974 10974 10974 10974 10974 10974 10974 10973 10973 10973 10972 10971 10970 10968 10967 10966 10965 10964 10963 10963 10962 10962 10962 10962 10961 10961 10961 10960 10960 10960 10959 10959 10958 10958 10958 10958 10958 10959 10959 10958 10958 10958 10957 10957 10957 10957 10956 10955 10954 10953 10952 10951
10994 10992 10991 10989 10988 10987 10986 10984 10982 10981 10980 10979 10979 10979 10979 10979 10979 10980 10980 10980 10980 10979 10979 10979 10979 10979 10978 10978 10977 10977 10976 10976 10975 10975 10975 10975 10976 10976 10975 10975 10974 10974 10973 10972 10971 10970 10968 10967 10965 10964 10963 10962 10962 10961 10961 10961 10960 10960 10959 10959 10959 10959 10959 10958 10958 10958 10957 10957 10957 10958 10958 10958 10958 10957 10957 10957 10956 10956 10956 10955 10954 10954 10953 10952 10951
10996 10994 10993 10991 10990 10989 10988 10987 10985 10983 10983 10982 10982 10982 10982 10982 10982 10982 10981 10981 10981 10981 10980 10980 10980 10979 10979 10979 10978 10978 10978 10977 10977 10976 10977 10977 10977 10977 10976 10975 10975 10974 10973 10972 10971 10969 10967 10966 10964 10963 10962 10961 10960 10960 10960 10959 10959 10958 10958 10957 10957 10957 10957 10957 10957 10956 10956 10956 10956 10956 10956 10957 10957 10956 10956 10956 10956 10955 10955 10954 10954 10953 10952 10951 10951
10998 10996 10995 10993 10992 10991 10990 10989 10988 10986 10986 10985 10985 10985 10985 10984 10984 10983 10983 10982 10982 10982 10981 10981 10981 10980 10980 10980 10979 10979 10979 10979 10978 10978 10979 10979 10979 10978 10977 10976 10975 10974 10972 10971 10969 10968 10966 10965 10963 10962 10961 10960 10959 10959 10959 10958 10958 10957 10956 10955 10955 10955 10955 10955 10955 10954 10954 10954 10954 10955 10955 10955 10955 10955 10955 10955 10955 10954 10954 10954 10953 10953 10952 10951 10951
11000 10999 10997 10996 10994 10994 10993 10991 10990 10989 10989 10988 10987 10987 10986 10986 10985 10985 10984 10984 10983 10983 10983 10982 10982 10982 10981 10981 10980 10980 10980 10980 10980 10980 10980 10980 10980 10979 10977 10976 10975 10973 10971 10969 10968 10966 10965 10963 10962 10961 10959 10959 10958 10958 10957 10957 10956 10956 10955 10954 10953 10953 10953 10953 10952 10952 10952 10952 10953 10953 10954 10954 10954 10954 10954 10954 10954 10954 10954 10953 10953 10952 10952 10952 10952
11003 11001 10999 10998 10997 10996 10995 10994 10993 10992 10991 10990 10989 10988 10987 10987 10986 10986 10985 10985 10985 10984 10984 10984 10984 10983 10983 10982 10982 10981 10981 10981 10981 10981 10981 10981 10980 10979 10977 10976 10974 10972 10970 10968 10967 10966 10964 10963 10961 10960 10958 10957 10956 10956 10955 10955 10954 10954 10953 10952 10952 10951 10951 10951 10951 10951 10951 10951 10952 10952 10953 10953 10953 10953 10953 10953 10953 10953 10953 10953 10953 10953 10953 10953 10953
11005 11003 11001 11000 10999 10998 10997 10996 10995 10994 10993 10991 10990 10989 10989 10989 10988 10987 10987 10987 10987 10986 10986 10985 10985 10985 10984 10984 10983 10982 10982 10982 10982 10982 10982 10981 10980 10979 10977 10976 10974 10972 10970 10968 10967 10966 10964 10963 10961 10959 10958 10956 10955 10954 10953 10953 10952 10952 10951 10951 10951 10950 10950 10950 10950 10950 10950 10951 10951 10951 10952 10952 10952 10952 10953 10953 10953 10953 10953 10953 10953 10953 10954 10954 10955
11007 11005 11003 11002 11001 11000 10999 10998 10997 10996 10994 10993 10991 10991 10991 10990 10990 10989 10989 10989 10989 10988 10988 10987 10987 10986 10986 10985 10984 10983 10983 10983 10983 10983 10983 10982 10981 10979 10978 10976 10974 10972 10971 10969 10968 10966 10965 10963 10961 10959 10958 10956 10955 10953 10952 10952 10951 10951 10950 10950 10949 10949 10950 10950 10950 10950 10950 10950 10951 10951 10951 10951 10952 10952 10952 10953 10953 10953 10953 10954 10954 10954 10955 10956 10957
11009 11007 11006 11004 11003 11002 11001 11000 10999 10998 10996 10995 10993 10993 10993 10992 10992 10992 10992 10992 10991 10990 10990 10989 10989 10988 10988 10987 10986 10985 10985 10984 10984 10984 10983 10982 10981 10979 10978 10976 10975 10973 10972 10970 10969 10967 10966 10964 10962 10960 10959 10957 10955 10953 10952 10951 10951 10951 10950 10950 10949 10949 10950 10950 10950 10950 10950 10950 10951 10951 10952 10952 10952 10953 10953 10953 10954 10954 10954 10955 10955 10956 10957 10957 10958
11011 11010 11008 11007 11005 11004 11003 11002 11001 11000 10998 10997 10996 10995 10995 10995 10994 10994 10994 10994 10993 10992 10992 10991 10990 10990 10989 10989 10988 10987 10986 10986 10985 10984 10983 10982 10981 10980 10979 10977 10976 10975 10973 10972 10970 10969 10967 10965 10964 10962 10960 10958 10956 10954 10952 10951 10951 10951 10950 10950 10950 10950 10950 10951 10951 10951 10951 10951 10952 10952 10953 10953 10953 10954 10954 10954 10955 10955 10956 10956 10957 10958 10958 10959 10959
11014 11012 11010 11009 11008 11007 11005 11004 11003 11002 11001 11000 10998 10997 10997 10997 10997 10996 10996 10996 10995 10994 10994 10993 10992 10992 10991 10990 10990 10988 10988 10987 10986 10985 10984 10983 10982 10981 10980 10979 10978 10976 10975 10973 10972 10970 10969 10967 10965 10964 10962 10959 10957 10955 10953 10952 10951 10951 10950 10950 10950 10951 10951 10951 10951 10952 10952 10952 10953 10953 10954 10954 10955 10955 10955 10956 10956 10957 10958 10958 10959 10959 10960 10960 10961
11016 11014 11013 11012 11010 11009 11008 11006 11005 11005 11004 11002 11001 11000 11000 10999 10999 10999 10998 10998 10997 10996 10996 10995 10994 10993 10993 10992 10992 10990 10989 10988 10988 10986 10985 10985 10984 10983 10982 10981 10979 10978 10977 10975 10973 10972 10970 10969 10967 10965 10963 10961 10959 10957 10955 10953 10952 10951 10951 10951 10951 10951 10951 10952 10952 10953 10953 10954 10954 10955 10955 10956 10956 10957 10957 10958 10958 10959 10959 10960 10961 10961 10961 10962 10962
11018 11016 11015 11014 11013 11011 11010 11009 11008 11007 11007 11006 11004 11003 11002 11002 11001 11001 11001 11000 10999 10999 10998 10997 10996 10995 10995 10994 10994 10992 10991 10990 10989 10988 10987 10986 10985 10984 10983 10983 10981 10980 10978 10976 10975 10973 10972 10970 10969 10967 10965 10963 10961 10959 10956 10954 10954 10953 10952 10952 10952 10952 10952 10952 10953 10954 10954 10955 10956 10956 10957 10957 10958 10958 10959 10959 10960 10961 10961 10962 10962 10962 10963 10963 10963
11019 11018 11017 11016 11015 11014 11013 11012 11011 11010 11010 11009 11007 11006 11005 11004 11004 11003 11003 11002 11001 11001 11000 10999 10998 10997 10997 10996 10995 10994 10993 10992 10991 10990 10989 10988 10987 10986 10985 10984 10983 10981 10979 10978 10976 10975 10973 10972 10970 10968 10967 10965 10963 10961 10958 10957 10956 10954 10954 10953 10952 10952 10953 10953 10954 10955 10956 10956 10957 10957 10958 10959 10959 10960 10961 10961 10962 10962 10963 10963 10963 10964 10964 10964 10964
11021 11020 11019 11018 11017 11016 11015 11014 11013 11013 11013 11012 11010 11009 11008 11007 11006 11005 11004 11004 11003 11002 11002 11001 11000 10999 10998 10997 10996 10995 10994 10993 10992 10992 10991 10990 10989 10988 10987 10986 10984 10982 10980 10979 10978 10977 10975 10973 10972 10970 10969 10967 10965 10963 10961 10959 10958 10957 10956 10955 10954 10954 10954 10954 10955 10956 10956 10957 10958 10959 10959 10960 10961 10962 10962 10963 10964 10964 10964 10964 10965 10965 10965 10965 10966
11023 11022 11021 11020 11019 11018 11017 11016 11016 11015 11015 11014 11013 11012 11010 11009 11009 11008 11007 11005 11005 11004 11004 11003 11002 11001 11000 10999 10998 10997 10996 10995 10994 10993 10993 10992 10991 10990 10989 10987 10985 10984 10982 10980 10979 10978 10977 10975 10974 10973 10972 10970 10967 10965 10964 10963 10961 10960 10959 10957 10956 10956 10955 10956 10956 10956 10957 10958 10958 10959 10960 10961 10962 10963 10964 10965 10965 10965 10966 10966 10966 10966 10966 10967 10967
11025 11023 11022 11022 11021 11020 11019 11019 11018 11017 11016 11016 11015 11014 11013 11012 11011 11010 11009 11008 11007 11006 11006 11005 11004 11004 11003 11001 11001 10999 10998 10997 10996 10995 10994 10994 10993 10992 10991 10989 10987 10985 10984 10983 10982 10980 10979 10978 10977 10976 10974 10972 10970 10968 10967 10966 10965 10963 10962 10960 10959 10958 10957 10957 10957 10957 10957 10958 10959 10960 10961 10962 10963 10964 10965 10966 10966 10966 10967 10967 10967 10967 10968 10968 10968
11026 11025 11024 11023 11022 11021 11021 11020 11020 11019 11018 11018 11017 11016 11015 11014 11013 11012 11011 11010 11009 11009 11008 11008 11007 11006 11005 11004 11003 11001 10999 10999 10998 10996 10996 10995 10995 10994 10993 10991 10989 10988 10987 10985 10984 10983 10981 10980 10979 10978 10976 10974 10973 10972 10971 10970 10968 10966 10965 10963 10961 10960 10959 10958 10958 10958 10958 10959 10960 10961 10962 10963 10964 10965 10966 10967 10967 10967 10968 10968 10968 10969 10969 10969 10969
11028 11027 11026 11024 11023 11022 11022 11022 11022 11021 11020 11020 11019 11018 11017 11016 11015 11014 11013 11012 11012 11011 11011 11010 11010 11009 11008 11007 11005 11003 11001 11000 11000 10998 10997 10997 10997 10996 10995 10993 10992 10990 10989 10988 10987 10985 10984 10983 10982 10980 10978 10977 10977 10976 10974 10973 10971 10969 10967 10965 10964 10962 10961 10960 10959 10959 10959 10960 10960 10961 10963 10964 10965 10966 10967 10968 10968 10969 10969 10969 10970 10970 10970 10970 10970
11029 11028 11027 11026 11025 11024 11023 11023 11023 11023 11022 11021 11021 11020 11019 11018 11017 11017 11016 11016 11015 11014 11013 11012 11012 11012 11011 11009 11008 11006 11004 11003 11002 11001 11000 10999 10999 10999 10997 10995 10994 10993 10992 10991 10990 10988 10987 10985 10984 10983 10981 10981 10980 10979 10978 10976 10974 10973 10971 10969 10967 10965 10963 10962 10961 10961 10960 10961 10961 10962 10963 10965 10966 10967 10968 10969 10969 10970 10970 10971 10971 10971 10971 10971 10971
11029 11028 11028 11027 11026 11025 11024 11024 11024 11024 11024 11023 11023 11022 11021 11020 11020 11019 11019 11018 11017 11016 11015 11015 11015 11014 11013 11012 11010 11008 11007 11006 11005 11003 11002 11001 11001 11001 10999 10997 10996 10995 10995 10994 10993 10991 10990 10988 10987 10986 10985 10984 10983 10982 10981 10979 10977 10976 10974 10972 10971 10969 10967 10965 10964 10963 10963 10962 10963 10964 10965 10966 10967 10968 10969 10970 10971 10971 10972 10972 10973 10973 10973 10973 10973
11030 11029 11029 11028 11027 11026 11026 11025 11025 11025 11025 11025 11024 11023 11022 11022 11022 11021 11020 11019 11019 11018 11018 11017 11017 11016 11015 11014 11012 11011 11010 11008 11007 11006 11004 11004 11003 11002 11001 10999 10999 10998 10998 10997 10996 10994 10993 10991 10990 10990 10988 10987 10986 10985 10984 10982 10981 10979 10977 10976 10974 10972 10971 10969 10968 10967 10966 10965 10965 10966 10967 10968 10969 10970 10971 10972 10972 10973 10973 10974 10974 10974 10974 10974 10974
11031 11030 11029 11029 11028 11027 11027 11027 11026 11026 11026 11026 11025 11025 11025 11024 11023 11022 11022 11021 11021 11020 11019 11019 11018 11017 11016 11015 11014 11013 11012 11012 11011 11009 11008 11007 11006 11004 11003 11002 11001 11001 11000 11000 10999 10997 10996 10995 10994 10993 10992 10990 10989 10988 10986 10985 10984 10982 10980 10979 10977 10976 10975 10973 10972 10971 10970 10969 10969 10969 10969 10970 10971 10972 10973 10974 10974 10975 10975 10975 10975 10976 10976 10976 10976
11033 11031 11030 11029 11028 11028 11028 11028 11027 11027 11027 11027 11027 11027 11027 11026 11026 11025 11024 11024 11022 11022 11021 11020 11020 11019 11017 11017 11016 11015 11015 11014 11013 11012 11011 11009 11008 11007 11005 11004 11004 11004 11003 11003 11002 11001 11000 10998 10997 10996 10994 10993 10992 10990 10989 10988 10986 10985 10984 10982 10981 10979 10978 10977 10976 10975 10974 10973 10973 10973 10973 10973 10974 10975 10975 10976 10976 10977 10977 10977 10978 10978 10978 10978 10977
11033 11032 11031 11030 11029 11029 11028 11028 11028 11028 11028 11028 11028 11028 11028 11028 11028 11027 11026 11025 11025 11024 11023 11022 11022 11021 11020 11019 11018 11017 11016 11015 11014 11013 11012 11011 11010 11009 11008 11007 11007 11006 11006 11006 11005 11004 11003 11001 11000 10998 10997 10995 10994 10992 10991 10990 10989 10988 10987 10986 10984 10983 10982 10980 10979 10978 10978 10977 10977 10977 10976 10977 10977 10978 10978 10979 10979 10979 10979 10980 10980 10980 10980 10980 10979
11034 11033 11033 11031 11030 11029 11029 11029 11029 11029 11029 11028 11029 11029 11029 11029 11029 11029 11028 11027 11026 11026 11025 11024 11024 11023 11022 11021 11020 11019 11018 11017 11016 11015 11015 11013 11012 11011 11011 11010 11009 11009 11008 11008 11007 11007 11006 11004 11002 11000 10999 10997 10995 10994 10994 10993 10992 10991 10990 10989 10988 10986 10985 10984 10983 10982 10982 10981 10981 10981 10980 10980 10980 10981 10981 10982 10982 10982 10982 10982 10983 10982 10982 10982 10982
11034 11034 11033 11032 11031 11030 11029 11029 11029 11029 11029 11029 11029 11029 11029 11030 11030 11029 11029 11028 11028 11027 11026 11026 11025 11025 11024 11024 11023 11022 11021 11020 11019 11018 11017 11016 11015 11014 11013 11013 11012 11011 11011 11011 11010 11009 11008 11006 11004 11003 11001 10999 10998 10997 10997 10996 10995 10994 10993 10992 10991 10990 10989 10988 10987 10986 10986 10985 10985 10984 10984 10983 10984 10984 10984 10985 10985 10985 10984 10985 10985 10985 10985 10984 10984
11034 11034 11033 11033 11032 11031 11030 11030 11030 11030 11030 11030 11030 11029 11030 11030 11030 11030 11029 11029 11028 11028 11028 11027 11027 11026 11026 11026 11025 11025 11024 11023 11022 11020 11020 11019 11018 11017 11016 11015 11015 11014 11014 11013 11012 11011 11010 11009 11007 11006 11004 11003 11002 11001 11000 10999 10998 10997 10996 10995 10994 10993 10992 10991 10991 10990 10990 10989 10988 10988 10988 10987 10987 10987 10988 10988 10987 10987 10987 10987 10987 10987 10987 10986 10985
11034 11034 11033 11033 11032 11031 11030 11030 11030 11030 11030 11030 11030 11030 11030 11030 11030 11030 11030 11030 11029 11029 11029 11028 11028 11027 11027 11027 11027 11027 11026 11025 11023 11022 11022 11021 11020 11019 11018 11018 11017 11016 11016 11015 11014 11013 11012 11011 11010 11009 11008 11007 11006 11005 11003 11002 11001 11000 11000 10999 10998 10997 10996 10995 10994 10994 10993 10993 10992 10992 10991 10991 10990 10990 10990 10990 10989 10989 10990 10989 10989 10989 10989 10987 10987
11034 11034 11033 11033 11033 11032 11031 11030 11030 11030 11030 11030 11030 11030 11030 11030 11031 11031 11031 11030 11030 11030 11030 11030 11029 11028 11028 11028 11028 11028 11027 11026 11025 11024 11023 11022 11022 11021 11021 11020 11019 11018 11018 11017 11016 11015 11015 11014 11013 11012 11012 11010 11009 11008 11007 11005 11005 11004 11003 11002 11001 11000 10999 10999 10998 10997 10996 10996 10996 10995 10995 10994 10993 10993 10993 10993 10992 10992 10992 10992 10991 10991 10990 10989 10988
11033 11033 11033 11033 11033 11032 11032 11031 11030 11030 11030 11030 11031 11031 11030 11031 11031 11031 11031 11031 11031 11031 11031 11031 11030 11029 11029 11028 11029 11029 11028 11028 11027 11026 11025 11024 11024 11023 11023 11022 11021 11021 11020 11019 11018 11017 11017 11016 11016 11015 11014 11013 11012 11011 11010 11009 11008 11007 11006 11005 11004 11004 11003 11002 11001 11000 10999 10999 10999 10998 10998 10997 10996 10996 10996 10995 10995 10994 10994 10994 10993 10993 10992 10991 10990
11033 11033 11033 11033 11033 11032 11032 11031 11030 11030 11030 11031 11031 11031 11031 11031 11031 11031 11032 11032 11032 11032 11032 11032 11031 11031 11030 11030 11029 11030 11029 11029 11028 11028 11027 11026 11026 11025 11025 11024 11024 11023 11022 11021 11020 11020 11019 11019 11018 11017 11016 11015 11014 11013 11012 11011 11011 11010 11009 11008 11007 11006 11006 11005 11004 11003 11002 11002 11001 11001 11000 11000 10999 10998 10998 10998 10997 10996 10996 10996 10995 10994 10993 10993 10992
11033 11033 11033 11033 11033 11032 11032 11031 11031 11030 11030 11031 11031 11032 11032 11031 11031 11031 11032 11032 11032 11032 11032 11032 11032 11032 11031 11031 11031 11031 11031 11030 11030 11029 11029 11028 11028 11027 11027 11026 11026 11025 11024 11023 11022 11022 11021 11021 11020 11020 11018 11017 11016 11015 11015 11014 11013 11012 11011 11010 11009 11009 11008 11007 11006 11006 11005 11004 11004 11003 11002 11002 11001 11001 11000 11000 10999 10999 10998 10997 10997 10996 10995 10995 10994
11033 11033 11033 11033 11033 11032 11032 11032 11031 11030 11030 11030 11031 11032 11032 11032 11032 11032 11032 11032 11033 11033 11033 11033 11033 11033 11033 11033 11032 11032 11032 11032 11031 11031 11031 11030 11030 11029 11029 11028 11028 11027 11026 11025 11025 11024 11023 11023 11022 11021 11020 11019 11018 11018 11017 11016 11016 11014 11013 11012 11012 11011 11010 11010 11009 11008 11007 11006 11006 11005 11004 11004 11004 11004 11003 11002 11002 11001 11000 10999 10998 10997 10997 10996 10995
11033 11033 11033 11033 11033 11032 11032 11031 11031 11030 11030 11030 11031 11032 11032 11032 11032 11032 11032 11033 11033 11033 11034 11034 11034 11034 11034 11034 11034 11033 11033 11033 11033 11033 11032 11032 11032 11031 11031 11030 11029 11029 11028 11027 11027 11026 11025 11025 11024 11023 11022 11021 11020 11020 11019 11018 11018 11016 11015 11014 11014 11013 11012 11012 11011 11010 11009 11009 11008 11007 11007 11006 11006 11006 11005 11004 11003 11002 11001 11000 11000 10999 10998 10997 10997
11032 11033 11033 11032 11032 11032 11032 11031 11031 11030 11030 11030 11031 11031 11032 11032 11032 11032 11033 11033 11033 11034 11034 11034 11034 11035 11035 11035 11035 11034 11034 11034 11034 11034 11034 11033 11033 11033 11032 11032 11031 11031 11030 11029 11029 11028 11027 11026 11026 11025 11024 11023 11022 11021 11021 11020 11019 11018 11017 11016 11015 11015 11014 11013 11013 11012 11011 11011 11010 11009 11009 11008 11008 11007 11007 11006 11005 11004 11003 11002 11001 11000 10999 10999 10998
11031 11032 11032 11032 11032 11032 11031 11031 11031 11030 11030 11030 11031 11031 11031 11032 11032 11033 11033 11033 11034 11034 11034 11035 11035 11035 11035 11036 11035 11035 11035 11035 11035 11035 11034 11034 11034 11034 11034 11033 11033 11032 11032 11031 11030 11030 11029 11028 11027 11026 11025 11025 11024 11023 11022 11021 11021 11020 11019 11018 11017 11016 11015 11015 11014 11014 11013 11012 11012 11011 11010 11010 11009 11008 11008 11007 11006 11005 11004 11003 11002 11002 11001 11000 10999
11030 11031 11032 11032 11032 11031 11031 11031 11031 11030 11030 11030 11031 11031 11031 11031 11032 11032 11033 11033 11034 11034 11034 11035 11035 11035 11036 11036 11036 11036 11036 11036 11035 11035 11035 11035 11035 11035 11035 11034 11034 11034 11033 11033 11032 11031 11031 11030 11029 11028 11027 11026 11025 11025 11024 11023 11022 11021 11020 11019 11018 11018 11017 11016 11016 11015 11014 11014 11013 11012 11012 11011 11010 11010 11009 11008 11007 11006 11006 11005 11004 11003 11002 11002 11000
11030 11030 11031 11031 11031 11031 11031 11030 11030 11030 11030 11030 11030 11031 11031 11031 11031 11032 11033 11033 11034 11034 11035 11035 11035 11036 11036 11036 11036 11036 11036 11036 11036 11036 11036 11036 11036 11036 11036 11035 11035 11035 11035 11034 11033 11033 11032 11031 11030 11029 11029 11028 11027 11026 11025 11024 11023 11022 11022 11021 11020 11019 11018 11018 11017 11016 11016 11015 11014 11014 11013 11013 11012 11011 11010 11009 11009 11008 11007 11007 11006 11005 11004 11003 11002